Hourly Data Report for August 27, 2003

TORONTO CITY
ONTARIO

43°40'00.000" N
79°24'00.000" W
112.50 m
6158355
71508
XTO

Download Data

Hourly Data (August 2003)
Hourly Data Report for August 27, 2003
TIME
LST
Temp Definition
°C
Dew Point Definition
°C
Rel Hum Definition
%
Precip. Amount Definition
mm

Wind Dir Definition
10's deg

Wind Spd Definition
km/h
Visibility Definition
km
Stn Press Definition
kPa
Hmdx Definition


Wind Chill Definition


Weather Definition


00:00 21.5 13.9 62   LegendMM LegendMM LegendMM 99.53 25   LegendNANA
01:00 21.3 13.5 61   LegendMM LegendMM LegendMM 99.53     LegendNANA
02:00 20.6 13.1 62   LegendMM LegendMM LegendMM 99.52     LegendNANA
03:00 18.9 12.8 68   LegendMM LegendMM LegendMM 99.54     LegendNANA
04:00 18.0 12.9 72   LegendMM LegendMM LegendMM 99.58     LegendNANA
05:00 17.9 13.3 74   LegendMM LegendMM LegendMM 99.63     LegendNANA
06:00 17.3 13.8 80   LegendMM LegendMM LegendMM 99.64     LegendNANA
07:00 20.0 13.2 65   LegendMM LegendMM LegendMM 99.64     LegendNANA
08:00 22.8 13.0 54   LegendMM LegendMM LegendMM 99.63 26   LegendNANA
09:00 24.5 17.0 63   LegendMM LegendMM LegendMM 99.66 30   LegendNANA
10:00 25.7 12.3 43   LegendMM LegendMM LegendMM 99.73 28   LegendNANA
11:00 25.9 12.7 44   LegendMM LegendMM LegendMM 99.80 29   LegendNANA
12:00 26.7 11.3 38   LegendMM LegendMM LegendMM 99.79 29   LegendNANA
13:00 25.7 12.8 45   LegendMM LegendMM LegendMM 99.82 28   LegendNANA
14:00 25.4 11.6 42   LegendMM LegendMM LegendMM 99.84 27   LegendNANA
15:00 24.8 11.5 43   LegendMM LegendMM LegendMM 99.89 27   LegendNANA
16:00 23.6 11.7 47   LegendMM LegendMM LegendMM 99.88 26   LegendNANA
17:00 23.0 7.9 38   LegendMM LegendMM LegendMM 99.96     LegendNANA
18:00 22.1 7.0 38   LegendMM LegendMM LegendMM 100.02     LegendNANA
19:00 20.6 10.0 51   LegendMM LegendMM LegendMM 100.12     LegendNANA
20:00 19.0 10.3 57   LegendMM LegendMM LegendMM 100.23     LegendNANA
21:00 18.5 10.4 59   LegendMM LegendMM LegendMM 100.30     LegendNANA
22:00 17.7 10.6 63   LegendMM LegendMM LegendMM 100.34     LegendNANA
23:00 16.9 10.9 68   LegendMM LegendMM LegendMM 100.35     LegendNANA

Notes on Data Quality.

Legend

  • E = Estimated
  • M = Missing
  • NA = Not Available*
  • [empty] = Indicates an unobserved value
Date modified: